| time (UTC) | temp F | wind direction | speed MPH | gust MPH | rain 1hr in | rain 24hr in | rain mn in | humidity % | barometer mb |
| 20260504210006 | 83 | 163 | 3.0 | 10.0 | 0.00 | 0.00 | 0.00 | 61 | 1011.5 |
| 20260504205503 | 84 | 112 | 3.0 | 6.0 | 0.00 | 0.00 | 0.00 | 61 | 1011.5 |
| 20260504205159 | 85 | 130 | 2.0 | 8.0 | 0.00 | 0.00 | 0.00 | 62 | 1011.6 |
| 20260504204436 | 84 | 148 | 2.0 | 10.0 | 0.00 | 0.00 | 0.00 | 60 | 1011.8 |
| 20260504203932 | 84 | 192 | 3.0 | 10.0 | 0.00 | 0.00 | 0.00 | 62 | 1011.7 |
| 20260504203430 | 84 | 104 | 4.0 | 10.0 | 0.00 | 0.00 | 0.00 | 60 | 1011.7 |
| 20260504202929 | 84 | 195 | 3.0 | 10.0 | 0.00 | 0.00 | 0.00 | 61 | 1011.9 |
| 20260504202426 | 83 | 187 | 3.0 | 8.0 | 0.00 | 0.00 | 0.00 | 63 | 1011.9 |
| 20260504201859 | 82 | 203 | 2.0 | 8.0 | 0.00 | 0.00 | 0.00 | 63 | 1012.2 |
| 20260504201333 | 82 | 169 | 2.0 | 8.0 | 0.00 | 0.00 | 0.00 | 63 | 1012.2 |
| 20260504200808 | 82 | 179 | 3.0 | 10.0 | 0.00 | 0.00 | 0.00 | 62 | 1012.3 |
| 20260504200306 | 82 | 184 | 3.0 | 10.0 | 0.00 | 0.00 | 0.00 | 63 | 1012.5 |
| 20260504195743 | 82 | 160 | 3.0 | 9.0 | 0.00 | 0.00 | 0.00 | 63 | 1012.5 |
| 20260504195240 | 82 | 196 | 3.0 | 9.0 | 0.00 | 0.00 | 0.00 | 61 | 1012.5 |
| 20260504194737 | 83 | 142 | 2.0 | 7.0 | 0.00 | 0.00 | 0.00 | 61 | 1012.8 |
| 20260504194210 | 82 | 181 | 2.0 | 7.0 | 0.00 | 0.00 | 0.00 | 62 | 1012.7 |
| 20260504193648 | 82 | 184 | 3.0 | 8.0 | 0.00 | 0.00 | 0.00 | 61 | 1012.7 |
| 20260504193124 | 83 | 193 | 3.0 | 8.0 | 0.00 | 0.00 | 0.00 | 62 | 1012.8 |
| 20260504192557 | 83 | 153 | 2.0 | 7.0 | 0.00 | 0.00 | 0.00 | 62 | 1012.8 |
| 20260504192056 | 82 | 131 | 3.0 | 8.0 | 0.00 | 0.00 | 0.00 | 62 | 1013.0 |
| 20260504191555 | 83 | 132 | 3.0 | 8.0 | 0.00 | 0.00 | 0.00 | 64 | 1013.2 |
| 20260504191053 | 82 | 188 | 3.0 | 9.0 | 0.00 | 0.00 | 0.00 | 62 | 1013.2 |
| 20260504190528 | 82 | 182 | 2.0 | 10.0 | 0.00 | 0.00 | 0.00 | 62 | 1013.2 |
| 20260504190441 | 82 | 181 | 2.0 | 10.0 | 0.00 | 0.00 | 0.00 | 62 | 1013.3 |
| 20260504185435 | 81 | 210 | 3.0 | 12.0 | 0.00 | 0.00 | 0.00 | 62 | 1013.4 |
| 20260504184932 | 81 | 208 | 3.0 | 12.0 | 0.00 | 0.00 | 0.00 | 63 | 1013.6 |
| 20260504184658 | 82 | 193 | 2.0 | 5.0 | 0.00 | 0.00 | 0.00 | 63 | 1013.5 |
| 20260504183931 | 82 | 147 | 2.0 | 6.0 | 0.00 | 0.00 | 0.00 | 63 | 1013.5 |
| 20260504183404 | 82 | 165 | 2.0 | 6.0 | 0.00 | 0.00 | 0.00 | 63 | 1013.5 |
| 20260504182837 | 81 | 144 | 3.0 | 7.0 | 0.00 | 0.00 | 0.00 | 63 | 1013.6 |
| 20260504182310 | 82 | 200 | 3.0 | 9.0 | 0.00 | 0.00 | 0.00 | 61 | 1013.5 |
| 20260504181744 | 81 | 200 | 3.0 | 13.0 | 0.00 | 0.00 | 0.00 | 61 | 1013.5 |
| 20260504181218 | 81 | 175 | 3.0 | 9.0 | 0.00 | 0.00 | 0.00 | 63 | 1013.7 |
| 20260504180651 | 80 | 116 | 3.0 | 10.0 | 0.00 | 0.00 | 0.00 | 62 | 1013.9 |
| 20260504180124 | 80 | 171 | 3.0 | 10.0 | 0.00 | 0.00 | 0.00 | 61 | 1014.0 |
| 20260504175618 | 81 | 207 | 3.0 | 9.0 | 0.00 | 0.00 | 0.00 | 62 | 1014.1 |
| 20260504175114 | 82 | 157 | 3.0 | 9.0 | 0.00 | 0.00 | 0.00 | 63 | 1014.1 |
| 20260504174610 | 80 | 185 | 3.0 | 9.0 | 0.00 | 0.00 | 0.00 | 62 | 1014.1 |
| 20260504174110 | 81 | 123 | 3.0 | 8.0 | 0.00 | 0.00 | 0.00 | 64 | 1014.1 |
| 20260504173834 | 80 | 132 | 3.0 | 8.0 | 0.00 | 0.00 | 0.00 | 62 | 1014.2 |
| 20260504173104 | 81 | 180 | 3.0 | 11.0 | 0.00 | 0.00 | 0.00 | 64 | 1014.3 |
| 20260504172538 | 81 | 131 | 3.0 | 11.0 | 0.00 | 0.00 | 0.00 | 63 | 1014.3 |
| 20260504172011 | 81 | 173 | 3.0 | 12.0 | 0.00 | 0.00 | 0.00 | 60 | 1014.5 |
| 20260504171510 | 81 | 160 | 3.0 | 12.0 | 0.00 | 0.00 | 0.00 | 62 | 1014.6 |
| 20260504171007 | 80 | 169 | 3.0 | 10.0 | 0.00 | 0.00 | 0.00 | 66 | 1014.7 |
| 20260504170505 | 80 | 190 | 3.0 | 10.0 | 0.00 | 0.00 | 0.00 | 65 | 1014.7 |
| 20260504160435 | 79 | 197 | 3.0 | 10.0 | 0.00 | 0.00 | 0.00 | 66 | 1015.5 |
| 20260504150352 | 75 | 194 | 2.0 | 8.0 | 0.00 | 0.00 | 0.00 | 68 | 1015.7 |
| 20260504140625 | 73 | 157 | 2.0 | 5.0 | 0.00 | 0.00 | 0.00 | 70 | 1015.6 |
| 20260504140120 | 72 | 182 | 2.0 | 7.0 | 0.00 | 0.00 | 0.00 | 71 | 1015.5 |
| 20260504130245 | 63 | 171 | 0.0 | 2.0 | 0.00 | 0.00 | 0.00 | 89 | 1015.6 |
| 20260504110646 | 57 | 0 | 0.0 | 0.0 | 0.00 | 0.00 | 0.00 | 89 | 1015.1 |
| 20260504110119 | 57 | 171 | 0.0 | 0.0 | 0.00 | 0.00 | 0.00 | 89 | 1015.0 |
| 20260504100329 | 58 | 171 | 0.0 | 0.0 | 0.00 | 0.00 | 0.00 | 86 | 1015.3 |
| 20260504090107 | 59 | 0 | 0.0 | 0.0 | 0.00 | 0.00 | 0.00 | 85 | 1015.9 |
| 20260504081418 | 60 | 0 | 0.0 | 0.0 | 0.00 | 0.00 | 0.00 | 82 | 1016.1 |
| 20260504080916 | 60 | 0 | 0.0 | 0.0 | 0.00 | 0.00 | 0.00 | 82 | 1016.0 |
| 20260504080349 | 60 | 171 | 0.0 | 0.0 | 0.00 | 0.00 | 0.00 | 81 | 1016.1 |
| 20260504080105 | 60 | 0 | 0.0 | 0.0 | 0.00 | 0.00 | 0.00 | 81 | 1016.2 |
| 20260504070150 | 61 | 171 | 0.0 | 1.0 | 0.00 | 0.00 | 0.00 | 80 | 1017.3 |
| 20260504050533 | 63 | 170 | 0.0 | 1.0 | 0.00 | 0.00 | 0.00 | 74 | 1018.0 |
| 20260504050007 | 63 | 0 | 0.0 | 1.0 | 0.00 | 0.00 | 0.00 | 73 | 1018.0 |
| 20260504045706 | 64 | 0 | 0.0 | 0.0 | 0.00 | 0.00 | 0.00 | 72 | 1017.9 |
| 20260504044913 | 64 | 0 | 0.0 | 0.0 | 0.00 | 0.00 | 0.00 | 71 | 1018.0 |
| 20260504044411 | 64 | 0 | 0.0 | 0.0 | 0.00 | 0.00 | 0.00 | 71 | 1018.0 |
| 20260504043908 | 65 | 0 | 0.0 | 0.0 | 0.00 | 0.00 | 0.00 | 71 | 1018.1 |
| 20260504043404 | 65 | 0 | 0.0 | 0.0 | 0.00 | 0.00 | 0.00 | 70 | 1018.1 |
| 20260504042838 | 65 | 0 | 0.0 | 2.0 | 0.00 | 0.00 | 0.00 | 69 | 1018.0 |
| 20260504042334 | 65 | 0 | 0.0 | 2.0 | 0.00 | 0.00 | 0.00 | 69 | 1018.1 |
| 20260504041808 | 65 | 0 | 0.0 | 1.0 | 0.00 | 0.00 | 0.00 | 69 | 1018.0 |
| 20260504041243 | 65 | 0 | 0.0 | 3.0 | 0.00 | 0.00 | 0.00 | 68 | 1018.1 |
| 20260504040728 | 66 | 0 | 0.0 | 3.0 | 0.00 | 0.00 | 0.00 | 68 | 1018.2 |
| 20260504040230 | 66 | 0 | 0.0 | 2.0 | 0.00 | 0.00 | 0.00 | 68 | 1018.2 |
| 20260504035704 | 66 | 0 | 0.0 | 3.0 | 0.00 | 0.00 | 0.00 | 67 | 1018.2 |
| 20260504035138 | 66 | 0 | 1.0 | 4.0 | 0.00 | 0.00 | 0.00 | 67 | 1018.1 |
| 20260504034857 | 66 | 0 | 1.0 | 4.0 | 0.00 | 0.00 | 0.00 | 66 | 1018.0 |
| 20260504034131 | 67 | 0 | 0.0 | 1.0 | 0.00 | 0.00 | 0.00 | 66 | 1018.1 |
| 20260504033629 | 67 | 0 | 0.0 | 2.0 | 0.00 | 0.00 | 0.00 | 65 | 1018.2 |
| 20260504033102 | 67 | 0 | 1.0 | 3.0 | 0.00 | 0.00 | 0.00 | 64 | 1018.2 |
| 20260504032559 | 67 | 0 | 1.0 | 3.0 | 0.00 | 0.00 | 0.00 | 64 | 1018.1 |
| 20260504032046 | 68 | 0 | 1.0 | 4.0 | 0.00 | 0.00 | 0.00 | 63 | 1018.1 |
| 20260504031548 | 68 | 0 | 1.0 | 4.0 | 0.00 | 0.00 | 0.00 | 63 | 1017.9 |
| 20260504031046 | 68 | 0 | 2.0 | 4.0 | 0.00 | 0.00 | 0.00 | 62 | 1017.8 |
| 20260504030542 | 68 | 0 | 2.0 | 4.0 | 0.00 | 0.00 | 0.00 | 62 | 1017.9 |
| 20260504030017 | 68 | 0 | 1.0 | 6.0 | 0.00 | 0.00 | 0.00 | 62 | 1017.8 |
| 20260504025450 | 68 | 0 | 1.0 | 6.0 | 0.00 | 0.00 | 0.00 | 62 | 1017.9 |
| 20260504024945 | 69 | 0 | 1.0 | 4.0 | 0.00 | 0.00 | 0.00 | 62 | 1017.8 |
| 20260504024422 | 69 | 0 | 1.0 | 4.0 | 0.00 | 0.00 | 0.00 | 61 | 1017.8 |
| 20260504023853 | 69 | 0 | 1.0 | 4.0 | 0.00 | 0.00 | 0.00 | 61 | 1017.9 |
| 20260504023352 | 69 | 0 | 1.0 | 3.0 | 0.00 | 0.00 | 0.00 | 60 | 1017.8 |
| 20260504022848 | 69 | 0 | 1.0 | 5.0 | 0.00 | 0.00 | 0.00 | 60 | 1017.8 |
| 20260504022345 | 70 | 0 | 2.0 | 5.0 | 0.00 | 0.00 | 0.00 | 59 | 1017.8 |
| 20260504021817 | 70 | 0 | 1.0 | 5.0 | 0.00 | 0.00 | 0.00 | 59 | 1017.7 |
| 20260504021315 | 70 | 0 | 1.0 | 5.0 | 0.00 | 0.00 | 0.00 | 58 | 1017.7 |
| 20260504020747 | 70 | 0 | 2.0 | 8.0 | 0.00 | 0.00 | 0.00 | 57 | 1017.6 |
| 20260504020244 | 71 | 0 | 2.0 | 5.0 | 0.00 | 0.00 | 0.00 | 58 | 1017.5 |
| 20260504015742 | 71 | 0 | 2.0 | 6.0 | 0.00 | 0.00 | 0.00 | 57 | 1017.5 |
| 20260504015239 | 71 | 154 | 2.0 | 6.0 | 0.00 | 0.00 | 0.00 | 57 | 1017.4 |
| 20260504014711 | 71 | 166 | 2.0 | 6.0 | 0.00 | 0.00 | 0.00 | 57 | 1017.4 |
| 20260504014209 | 71 | 0 | 1.0 | 7.0 | 0.00 | 0.00 | 0.00 | 57 | 1017.4 |
| 20260504013908 | 71 | 175 | 2.0 | 7.0 | 0.00 | 0.00 | 0.00 | 57 | 1017.4 |
| 20260504013407 | 71 | 0 | 1.0 | 4.0 | 0.00 | 0.00 | 0.00 | 56 | 1017.3 |
| 20260504012833 | 71 | 140 | 0.0 | 2.0 | 0.00 | 0.00 | 0.00 | 56 | 1017.2 |
| 20260504012045 | 72 | 140 | 1.0 | 4.0 | 0.00 | 0.00 | 0.00 | 56 | 1017.1 |
| 20260504011542 | 72 | 150 | 1.0 | 3.0 | 0.00 | 0.00 | 0.00 | 55 | 1017.0 |
| 20260504011224 | 73 | 150 | 1.0 | 2.0 | 0.00 | 0.00 | 0.00 | 54 | 1017.1 |
| 20260504011104 | 73 | 202 | 1.0 | 4.0 | 0.00 | 0.00 | 0.00 | 55 | 1017.0 |
| 20260504005945 | 73 | 149 | 1.0 | 3.0 | 0.00 | 0.00 | 0.00 | 53 | 1017.1 |
| 20260504005442 | 73 | 146 | 1.0 | 6.0 | 0.00 | 0.00 | 0.00 | 53 | 1017.0 |
| 20260504004917 | 74 | 139 | 2.0 | 6.0 | 0.00 | 0.00 | 0.00 | 51 | 1017.1 |
| 20260504004350 | 74 | 153 | 2.0 | 5.0 | 0.00 | 0.00 | 0.00 | 51 | 1017.1 |
| 20260504003846 | 75 | 144 | 1.0 | 3.0 | 0.00 | 0.00 | 0.00 | 50 | 1017.1 |
| 20260504003319 | 75 | 165 | 1.0 | 5.0 | 0.00 | 0.00 | 0.00 | 48 | 1017.2 |
| 20260504002816 | 76 | 144 | 1.0 | 6.0 | 0.00 | 0.00 | 0.00 | 47 | 1017.2 |
| 20260504002250 | 76 | 205 | 1.0 | 6.0 | 0.00 | 0.00 | 0.00 | 45 | 1017.2 |
| 20260504001746 | 77 | 172 | 1.0 | 2.0 | 0.00 | 0.00 | 0.00 | 45 | 1017.2 |
| 20260504001222 | 78 | 162 | 1.0 | 7.0 | 0.00 | 0.00 | 0.00 | 45 | 1017.0 |
| 20260504000657 | 78 | 163 | 2.0 | 7.0 | 0.00 | 0.00 | 0.00 | 43 | 1017.1 |
| 20260504000154 | 78 | 137 | 2.0 | 9.0 | 0.00 | 0.00 | 0.00 | 43 | 1017.1 |
| 20260503235650 | 79 | 158 | 2.0 | 9.0 | 0.00 | 0.00 | 0.00 | 43 | 1017.3 |
| 20260503235147 | 79 | 131 | 1.0 | 4.0 | 0.00 | 0.00 | 0.00 | 43 | 1017.3 |
| 20260503234644 | 79 | 229 | 1.0 | 5.0 | 0.00 | 0.00 | 0.00 | 44 | 1017.3 |
| 20260503234142 | 79 | 229 | 2.0 | 5.0 | 0.00 | 0.00 | 0.00 | 43 | 1017.3 |
| 20260503233638 | 80 | 129 | 2.0 | 4.0 | 0.00 | 0.00 | 0.00 | 44 | 1017.3 |
| 20260503233112 | 80 | 186 | 2.0 | 4.0 | 0.00 | 0.00 | 0.00 | 44 | 1017.3 |
| 20260503232608 | 80 | 182 | 1.0 | 5.0 | 0.00 | 0.00 | 0.00 | 43 | 1017.3 |
| 20260503232042 | 80 | 205 | 1.0 | 5.0 | 0.00 | 0.00 | 0.00 | 45 | 1017.3 |
| 20260503231537 | 80 | 196 | 1.0 | 5.0 | 0.00 | 0.00 | 0.00 | 44 | 1017.4 |
| 20260503231031 | 80 | 192 | 1.0 | 6.0 | 0.00 | 0.00 | 0.00 | 45 | 1017.4 |
| 20260503230528 | 80 | 189 | 2.0 | 6.0 | 0.00 | 0.00 | 0.00 | 43 | 1017.4 |
| 20260503225959 | 80 | 195 | 2.0 | 5.0 | 0.00 | 0.00 | 0.00 | 44 | 1017.4 |
| 20260503225457 | 80 | 161 | 2.0 | 5.0 | 0.00 | 0.00 | 0.00 | 45 | 1017.4 |
| 20260503224930 | 80 | 140 | 2.0 | 4.0 | 0.00 | 0.00 | 0.00 | 43 | 1017.5 |
| 20260503224428 | 80 | 132 | 1.0 | 5.0 | 0.00 | 0.00 | 0.00 | 43 | 1017.7 |
| 20260503223924 | 80 | 175 | 2.0 | 5.0 | 0.00 | 0.00 | 0.00 | 45 | 1017.6 |
| 20260503223358 | 80 | 169 | 3.0 | 5.0 | 0.00 | 0.00 | 0.00 | 42 | 1017.6 |
| 20260503222856 | 80 | 166 | 2.0 | 4.0 | 0.00 | 0.00 | 0.00 | 45 | 1017.8 |
| 20260503222327 | 80 | 159 | 2.0 | 5.0 | 0.00 | 0.00 | 0.00 | 44 | 1017.8 |
| 20260503222048 | 80 | 196 | 2.0 | 5.0 | 0.00 | 0.00 | 0.00 | 43 | 1017.9 |
| 20260503221322 | 80 | 178 | 2.0 | 5.0 | 0.00 | 0.00 | 0.00 | 42 | 1018.0 |
| 20260503220756 | 80 | 187 | 3.0 | 7.0 | 0.00 | 0.00 | 0.00 | 41 | 1018.0 |
| 20260503220252 | 80 | 142 | 3.0 | 7.0 | 0.00 | 0.00 | 0.00 | 41 | 1018.0 |
| 20260503215750 | 80 | 224 | 2.0 | 7.0 | 0.00 | 0.00 | 0.00 | 42 | 1018.0 |
| 20260503215246 | 80 | 150 | 1.0 | 4.0 | 0.00 | 0.00 | 0.00 | 41 | 1018.0 |
| 20260503214719 | 80 | 188 | 1.0 | 4.0 | 0.00 | 0.00 | 0.00 | 38 | 1018.0 |
| 20260503214218 | 80 | 152 | 2.0 | 5.0 | 0.00 | 0.00 | 0.00 | 44 | 1018.0 |
| 20260503213915 | 81 | 178 | 2.0 | 5.0 | 0.00 | 0.00 | 0.00 | 43 | 1018.2 |
| 20260503213127 | 81 | 241 | 2.0 | 7.0 | 0.00 | 0.00 | 0.00 | 41 | 1018.5 |
| 20260503212559 | 81 | 165 | 1.0 | 4.0 | 0.00 | 0.00 | 0.00 | 43 | 1018.5 |
| 20260503212032 | 81 | 179 | 1.0 | 4.0 | 0.00 | 0.00 | 0.00 | 41 | 1018.6 |
| 20260503211528 | 81 | 190 | 2.0 | 4.0 | 0.00 | 0.00 | 0.00 | 43 | 1018.6 |
| 20260503211003 | 82 | 107 | 2.0 | 5.0 | 0.00 | 0.00 | 0.00 | 43 | 1018.8 |
| 20260503210656 | 82 | 123 | 1.0 | 5.0 | 0.00 | 0.00 | 0.00 | 43 | 1018.7 |